Year,Month,Day,Hour,Minute,Value (Times are PST for temperature in C)
2017,05,25,00,00,10.10
2017,05,25,00,01,10.10
2017,05,25,00,02,10.10
2017,05,25,00,03,10.10
2017,05,25,00,04,10.10
2017,05,25,00,05,10.10
2017,05,25,00,06,10.10
2017,05,25,00,07,10.10
2017,05,25,00,08,10.10
2017,05,25,00,09,10.10
2017,05,25,00,10,10.10
2017,05,25,00,11,10.00
2017,05,25,00,12,10.00
2017,05,25,00,13,10.00
2017,05,25,00,14,10.00
2017,05,25,00,15,10.00
2017,05,25,00,16,10.00
2017,05,25,00,17,10.00
2017,05,25,00,18,9.90
2017,05,25,00,19,9.90
2017,05,25,00,20,9.90
2017,05,25,00,21,9.90
2017,05,25,00,22,9.90
2017,05,25,00,23,9.90
2017,05,25,00,24,9.90
2017,05,25,00,25,9.90
2017,05,25,00,26,9.90
2017,05,25,00,27,9.90
2017,05,25,00,28,9.90
2017,05,25,00,29,9.90
2017,05,25,00,30,9.90
2017,05,25,00,31,9.80
2017,05,25,00,32,9.80
2017,05,25,00,33,9.80
2017,05,25,00,34,9.80
2017,05,25,00,35,9.80
2017,05,25,00,36,9.80
2017,05,25,00,37,9.80
2017,05,25,00,38,9.80
2017,05,25,00,39,9.80
2017,05,25,00,40,9.80
2017,05,25,00,41,9.70
2017,05,25,00,42,9.70
2017,05,25,00,43,9.70
2017,05,25,00,44,9.70
2017,05,25,00,45,9.70
2017,05,25,00,46,9.60
2017,05,25,00,47,9.60
2017,05,25,00,48,9.60
2017,05,25,00,49,9.60
2017,05,25,00,50,9.50
2017,05,25,00,51,9.50
2017,05,25,00,52,9.50
2017,05,25,00,53,9.40
2017,05,25,00,54,9.40
2017,05,25,00,55,9.40
2017,05,25,00,56,9.40
2017,05,25,00,57,9.30
2017,05,25,00,58,9.30
2017,05,25,00,59,9.30
2017,05,25,01,00,9.30
2017,05,25,01,01,9.30
2017,05,25,01,02,9.20
2017,05,25,01,03,9.20
2017,05,25,01,04,9.20
2017,05,25,01,05,9.20
2017,05,25,01,06,9.20
2017,05,25,01,07,9.20
2017,05,25,01,08,9.20
2017,05,25,01,09,9.20
2017,05,25,01,10,9.20
2017,05,25,01,11,9.20
2017,05,25,01,12,9.20
2017,05,25,01,13,9.20
2017,05,25,01,14,9.20
2017,05,25,01,15,9.20
2017,05,25,01,16,9.20
2017,05,25,01,17,9.20
2017,05,25,01,18,9.20
2017,05,25,01,19,9.20
2017,05,25,01,20,9.20
2017,05,25,01,21,9.20
2017,05,25,01,22,9.20
2017,05,25,01,23,9.20
2017,05,25,01,24,9.20
2017,05,25,01,25,9.20
2017,05,25,01,26,9.20
2017,05,25,01,27,9.10
2017,05,25,01,28,9.10
2017,05,25,01,29,9.10
2017,05,25,01,30,9.10
2017,05,25,01,31,9.10
2017,05,25,01,32,9.10
2017,05,25,01,33,9.10
2017,05,25,01,34,9.10
2017,05,25,01,35,9.10
2017,05,25,01,36,9.10
2017,05,25,01,37,9.10
2017,05,25,01,38,9.10
2017,05,25,01,39,9.00
2017,05,25,01,40,9.00
2017,05,25,01,41,9.00
2017,05,25,01,42,8.90
2017,05,25,01,43,8.90
2017,05,25,01,44,8.90
2017,05,25,01,45,8.90
2017,05,25,01,46,8.90
2017,05,25,01,47,8.90
2017,05,25,01,48,8.90
2017,05,25,01,49,8.90
2017,05,25,01,50,8.90
2017,05,25,01,51,8.90
2017,05,25,01,52,8.90
2017,05,25,01,53,8.90
2017,05,25,01,54,8.90
2017,05,25,01,55,8.90
2017,05,25,01,56,8.90
2017,05,25,01,57,8.80
2017,05,25,01,58,8.80
2017,05,25,01,59,8.80
2017,05,25,02,00,8.80
2017,05,25,02,01,8.80
2017,05,25,02,02,8.80
2017,05,25,02,03,8.80
2017,05,25,02,04,8.70
2017,05,25,02,05,8.70
2017,05,25,02,06,8.70
2017,05,25,02,07,8.70
2017,05,25,02,08,8.70
2017,05,25,02,09,8.60
2017,05,25,02,10,8.60
2017,05,25,02,11,8.60
2017,05,25,02,12,8.60
2017,05,25,02,13,8.60
2017,05,25,02,14,8.60
2017,05,25,02,15,8.60
2017,05,25,02,16,8.60
2017,05,25,02,17,8.60
2017,05,25,02,18,8.60
2017,05,25,02,19,8.60
2017,05,25,02,20,8.60
2017,05,25,02,21,8.60
2017,05,25,02,22,8.60
2017,05,25,02,23,8.60
2017,05,25,02,24,8.60
2017,05,25,02,25,8.60
2017,05,25,02,26,8.60
2017,05,25,02,27,8.60
2017,05,25,02,28,8.60
2017,05,25,02,29,8.60
2017,05,25,02,30,8.60
2017,05,25,02,31,8.60
2017,05,25,02,32,8.60
2017,05,25,02,33,8.50
2017,05,25,02,34,8.50
2017,05,25,02,35,8.50
2017,05,25,02,36,8.50
2017,05,25,02,37,8.50
2017,05,25,02,38,8.50
2017,05,25,02,39,8.50
2017,05,25,02,40,8.60
2017,05,25,02,41,8.60
2017,05,25,02,42,8.60
2017,05,25,02,43,8.60
2017,05,25,02,44,8.60
2017,05,25,02,45,8.60
2017,05,25,02,46,8.60
2017,05,25,02,47,8.60
2017,05,25,02,48,8.60
2017,05,25,02,49,8.60
2017,05,25,02,50,8.60
2017,05,25,02,51,8.60
2017,05,25,02,52,8.60
2017,05,25,02,53,8.70
2017,05,25,02,54,8.70
2017,05,25,02,55,8.70
2017,05,25,02,56,8.80
2017,05,25,02,57,8.80
2017,05,25,02,58,8.80
2017,05,25,02,59,8.90
2017,05,25,03,00,8.90
2017,05,25,03,01,8.90
2017,05,25,03,02,8.90
2017,05,25,03,03,8.90
2017,05,25,03,04,9.00
2017,05,25,03,05,9.00
2017,05,25,03,06,9.00
2017,05,25,03,07,9.00
2017,05,25,03,08,9.10
2017,05,25,03,09,9.10
2017,05,25,03,10,9.10
2017,05,25,03,11,9.10
2017,05,25,03,12,9.10
2017,05,25,03,13,9.10
2017,05,25,03,14,9.10
2017,05,25,03,15,9.20
2017,05,25,03,16,9.20
2017,05,25,03,17,9.20
2017,05,25,03,18,9.20
2017,05,25,03,19,9.20
2017,05,25,03,20,9.20
2017,05,25,03,21,9.20
2017,05,25,03,22,9.20
2017,05,25,03,23,9.20
2017,05,25,03,24,9.20
2017,05,25,03,25,9.20
2017,05,25,03,26,9.20
2017,05,25,03,27,9.20
2017,05,25,03,28,9.20
2017,05,25,03,29,9.20
2017,05,25,03,30,9.20
2017,05,25,03,31,9.20
2017,05,25,03,32,9.20
2017,05,25,03,33,9.20
2017,05,25,03,34,9.20
2017,05,25,03,35,9.20
2017,05,25,03,36,9.20
2017,05,25,03,37,9.20
2017,05,25,03,38,9.20
2017,05,25,03,39,9.20
2017,05,25,03,40,9.20
2017,05,25,03,41,9.20
2017,05,25,03,42,9.20
2017,05,25,03,43,9.20
2017,05,25,03,44,9.20
2017,05,25,03,45,9.30
2017,05,25,03,46,9.30
2017,05,25,03,47,9.30
2017,05,25,03,48,9.30
2017,05,25,03,49,9.30
2017,05,25,03,50,9.30
2017,05,25,03,51,9.30
2017,05,25,03,52,9.30
2017,05,25,03,53,9.30
2017,05,25,03,54,9.30
2017,05,25,03,55,9.30
2017,05,25,03,56,9.30
2017,05,25,03,57,9.30
2017,05,25,03,58,9.30
2017,05,25,03,59,9.30
2017,05,25,04,00,9.30
2017,05,25,04,01,9.30
2017,05,25,04,02,9.30
2017,05,25,04,03,9.30
2017,05,25,05,04,8.20
2017,05,25,05,05,8.20
2017,05,25,05,06,8.20
2017,05,25,05,07,8.10
2017,05,25,05,08,8.10
2017,05,25,05,09,8.10
2017,05,25,05,10,8.10
2017,05,25,05,11,8.10
2017,05,25,05,12,8.10
2017,05,25,05,13,8.00
2017,05,25,05,14,8.00
2017,05,25,05,15,8.00
2017,05,25,05,16,8.00
2017,05,25,05,17,8.00
2017,05,25,05,18,8.00
2017,05,25,05,19,8.00
2017,05,25,05,20,8.00
2017,05,25,05,21,7.90
2017,05,25,05,22,7.90
2017,05,25,05,23,7.90
2017,05,25,05,24,7.90
2017,05,25,05,25,7.90
2017,05,25,05,26,7.90
2017,05,25,05,27,7.90
2017,05,25,05,28,7.90
2017,05,25,05,29,7.90
2017,05,25,05,30,7.80
2017,05,25,05,31,7.80
2017,05,25,05,32,7.80
2017,05,25,05,33,7.80
2017,05,25,05,34,7.80
2017,05,25,05,35,7.80
2017,05,25,05,36,7.80
2017,05,25,05,37,7.80
2017,05,25,05,38,7.80
2017,05,25,05,39,7.80
2017,05,25,05,40,7.80
2017,05,25,05,41,7.80
2017,05,25,05,42,7.80
2017,05,25,05,43,7.80
2017,05,25,05,44,7.80
2017,05,25,05,45,7.80
2017,05,25,05,46,7.80
2017,05,25,05,47,7.80
2017,05,25,05,48,7.80
2017,05,25,05,49,7.80
2017,05,25,05,50,7.80
2017,05,25,05,51,7.80
2017,05,25,05,52,7.80
2017,05,25,05,53,7.80
2017,05,25,05,54,7.80
2017,05,25,05,55,7.80
2017,05,25,05,56,7.80
2017,05,25,05,57,7.80
2017,05,25,05,58,7.80
2017,05,25,05,59,7.80
2017,05,25,06,00,7.80
2017,05,25,06,01,7.80
2017,05,25,06,02,7.80
2017,05,25,06,03,7.70
2017,05,25,06,04,7.70
2017,05,25,06,05,7.70
2017,05,25,06,06,7.70
2017,05,25,06,07,7.70
2017,05,25,06,08,7.60
2017,05,25,06,09,7.60
2017,05,25,06,10,7.60
2017,05,25,06,11,7.60
2017,05,25,06,12,7.60
2017,05,25,06,13,7.60
2017,05,25,06,14,7.60
2017,05,25,06,15,7.60
2017,05,25,06,16,7.60
2017,05,25,06,17,7.60
2017,05,25,06,18,7.70
2017,05,25,06,19,7.70
2017,05,25,06,20,7.70
2017,05,25,06,21,7.70
2017,05,25,06,22,7.70
2017,05,25,06,23,7.80
2017,05,25,06,24,7.80
2017,05,25,06,25,7.80
2017,05,25,06,26,7.80
2017,05,25,06,27,7.90
2017,05,25,06,28,7.90
2017,05,25,06,29,7.90
2017,05,25,06,30,7.90
2017,05,25,06,31,8.00
2017,05,25,06,32,8.00
2017,05,25,06,33,8.00
2017,05,25,06,34,8.10
2017,05,25,06,35,8.10
2017,05,25,06,36,8.10
2017,05,25,06,37,8.10
2017,05,25,06,38,8.10
2017,05,25,06,39,8.10
2017,05,25,06,40,8.20
2017,05,25,06,41,8.20
2017,05,25,06,42,8.20
2017,05,25,06,43,8.20
2017,05,25,06,44,8.20
2017,05,25,06,45,8.20
2017,05,25,06,46,8.20
2017,05,25,06,47,8.20
2017,05,25,06,48,8.20
2017,05,25,06,49,8.20
2017,05,25,06,50,8.30
2017,05,25,06,51,8.30
2017,05,25,06,52,8.30
2017,05,25,06,53,8.30
2017,05,25,06,54,8.40
2017,05,25,06,55,8.40
2017,05,25,06,56,8.40
2017,05,25,06,57,8.50
2017,05,25,06,58,8.50
2017,05,25,06,59,8.60
2017,05,25,07,00,8.70
2017,05,25,07,01,8.80
2017,05,25,07,02,8.80
2017,05,25,07,03,8.90
2017,05,25,07,04,9.00
2017,05,25,07,05,9.10
2017,05,25,07,06,9.20
2017,05,25,07,07,9.30
2017,05,25,07,08,9.40
2017,05,25,07,09,9.50
2017,05,25,07,10,9.60
2017,05,25,07,11,9.70
2017,05,25,07,12,9.70
2017,05,25,07,13,9.80
2017,05,25,07,14,9.90
2017,05,25,07,15,10.00
2017,05,25,07,16,10.10
2017,05,25,07,17,10.20
2017,05,25,07,18,10.30
2017,05,25,07,19,10.40
2017,05,25,07,20,10.50
2017,05,25,07,21,10.50
2017,05,25,07,22,10.60
2017,05,25,07,23,10.70
2017,05,25,07,24,10.70
2017,05,25,07,25,10.80
2017,05,25,07,26,10.90
2017,05,25,07,27,10.90
2017,05,25,07,28,11.00
2017,05,25,07,29,11.10
2017,05,25,07,30,11.10
2017,05,25,07,31,11.20
2017,05,25,07,32,11.30
2017,05,25,07,33,11.30
2017,05,25,07,34,11.40
2017,05,25,07,35,11.50
2017,05,25,07,36,11.50
2017,05,25,07,37,11.60
2017,05,25,07,38,11.70
2017,05,25,07,39,11.70
2017,05,25,07,40,11.80
2017,05,25,07,41,11.90
2017,05,25,07,42,12.00
2017,05,25,07,43,12.00
2017,05,25,07,44,12.10
2017,05,25,07,45,12.20
2017,05,25,07,46,12.20
2017,05,25,07,47,12.30
2017,05,25,07,48,12.30
2017,05,25,07,49,12.40
2017,05,25,07,50,12.60
2017,05,25,07,51,12.70
2017,05,25,07,52,12.70
2017,05,25,07,53,12.70
2017,05,25,07,54,12.70
2017,05,25,07,55,12.70
2017,05,25,07,56,12.70
2017,05,25,07,57,12.70
2017,05,25,07,58,12.70
2017,05,25,07,59,12.70
2017,05,25,08,00,12.70
2017,05,25,08,01,12.70
2017,05,25,08,02,12.70
2017,05,25,08,03,12.70
2017,05,25,08,04,12.70
2017,05,25,08,05,12.70
2017,05,25,08,06,12.70
2017,05,25,08,07,12.70
2017,05,25,08,08,12.80
2017,05,25,08,09,12.80
2017,05,25,08,10,12.80
2017,05,25,08,11,12.90
2017,05,25,08,12,13.00
2017,05,25,08,13,13.00
2017,05,25,08,14,13.10
2017,05,25,08,15,13.10
2017,05,25,08,16,13.20
2017,05,25,08,17,13.30
2017,05,25,08,18,13.40
2017,05,25,08,19,13.50
2017,05,25,08,20,13.50
2017,05,25,08,21,13.60
2017,05,25,08,22,13.60
2017,05,25,08,23,13.70
2017,05,25,08,24,13.70
2017,05,25,08,25,13.70
2017,05,25,08,26,13.70
2017,05,25,08,27,13.70
2017,05,25,08,28,13.70
2017,05,25,08,29,13.70
2017,05,25,08,30,13.70
2017,05,25,08,31,13.70
2017,05,25,08,32,13.60
2017,05,25,08,33,13.60
2017,05,25,08,34,13.60
2017,05,25,08,35,13.60
2017,05,25,08,36,13.60
2017,05,25,08,37,13.60
2017,05,25,08,38,13.60
2017,05,25,08,39,13.60
2017,05,25,08,40,13.50
2017,05,25,08,41,13.50
2017,05,25,08,42,13.50
2017,05,25,08,43,13.50
2017,05,25,08,44,13.50
2017,05,25,08,45,13.50
2017,05,25,08,46,13.50
2017,05,25,08,47,13.50
2017,05,25,08,48,13.60
2017,05,25,08,49,13.60
2017,05,25,08,50,13.60
2017,05,25,08,51,13.60
2017,05,25,08,52,13.60
2017,05,25,08,53,13.60
2017,05,25,08,54,13.60
2017,05,25,08,55,13.60
2017,05,25,08,56,13.70
2017,05,25,08,57,13.70
2017,05,25,08,58,13.80
2017,05,25,08,59,13.80
2017,05,25,09,00,13.90
2017,05,25,09,01,13.90
2017,05,25,09,02,14.00
2017,05,25,09,03,14.00
2017,05,25,09,04,14.00
2017,05,25,09,05,14.00
2017,05,25,09,06,14.00
2017,05,25,09,07,14.00
2017,05,25,09,08,13.90
2017,05,25,09,09,13.90
2017,05,25,09,10,13.90
2017,05,25,09,11,13.90
2017,05,25,09,12,14.00
2017,05,25,09,13,14.00
2017,05,25,09,14,13.90
2017,05,25,09,15,13.90
2017,05,25,09,16,13.90
2017,05,25,09,17,13.90
2017,05,25,09,18,13.90
2017,05,25,09,19,13.90
2017,05,25,09,20,13.90
2017,05,25,09,21,13.90
2017,05,25,09,22,14.00
2017,05,25,09,23,14.00
2017,05,25,09,24,14.00
2017,05,25,09,25,14.10
2017,05,25,09,26,14.10
2017,05,25,09,27,14.10
2017,05,25,09,28,14.20
2017,05,25,09,29,14.20
2017,05,25,09,30,14.20
2017,05,25,09,31,14.20
2017,05,25,09,32,14.20
2017,05,25,09,33,14.20
2017,05,25,09,34,14.20
2017,05,25,09,35,14.30
2017,05,25,09,36,14.30
2017,05,25,09,37,14.30
2017,05,25,09,38,14.30
2017,05,25,09,39,14.30
2017,05,25,09,40,14.40
2017,05,25,09,41,14.40
2017,05,25,09,42,14.50
2017,05,25,09,43,14.50
2017,05,25,09,44,14.60
2017,05,25,09,45,14.60
2017,05,25,09,46,14.70
2017,05,25,09,47,14.70
2017,05,25,09,48,14.80
2017,05,25,09,49,14.80
2017,05,25,09,50,14.70
2017,05,25,09,51,14.70
2017,05,25,09,52,14.70
2017,05,25,09,53,14.80
2017,05,25,09,54,14.80
2017,05,25,09,55,14.90
2017,05,25,09,56,14.90
2017,05,25,09,57,15.00
2017,05,25,09,58,15.00
2017,05,25,09,59,15.00
2017,05,25,10,00,15.00
2017,05,25,10,01,14.90
2017,05,25,10,02,14.90
2017,05,25,10,03,14.80
2017,05,25,10,04,14.80
2017,05,25,10,05,14.70
2017,05,25,10,06,14.70
2017,05,25,10,07,14.80
2017,05,25,10,08,14.80
2017,05,25,10,09,14.80
2017,05,25,10,10,14.80
2017,05,25,10,11,14.80
2017,05,25,10,12,14.80
2017,05,25,10,13,14.80
2017,05,25,10,14,14.90
2017,05,25,10,15,15.00
2017,05,25,10,16,15.10
2017,05,25,10,17,15.10
2017,05,25,10,18,15.00
2017,05,25,10,19,15.10
2017,05,25,10,20,15.10
2017,05,25,10,21,15.20
2017,05,25,10,22,15.30
2017,05,25,10,23,15.40
2017,05,25,10,24,15.40
2017,05,25,10,25,15.50
2017,05,25,10,26,15.60
2017,05,25,10,27,15.60
2017,05,25,10,28,15.70
2017,05,25,10,29,15.70
2017,05,25,10,30,15.70
2017,05,25,10,31,15.60
2017,05,25,10,32,15.50
2017,05,25,10,33,15.40
2017,05,25,10,34,15.30
2017,05,25,10,35,15.30
2017,05,25,10,36,15.30
2017,05,25,10,37,15.30
2017,05,25,10,38,15.30
2017,05,25,10,39,15.30
2017,05,25,10,40,15.30
2017,05,25,10,41,15.30
2017,05,25,10,42,15.30
2017,05,25,10,43,15.30
2017,05,25,10,44,15.30
2017,05,25,10,45,15.40
2017,05,25,10,46,15.40
2017,05,25,10,47,15.40
2017,05,25,10,48,15.40
2017,05,25,10,49,15.40
2017,05,25,10,50,15.40
2017,05,25,10,51,15.40
2017,05,25,10,52,15.40
2017,05,25,10,53,15.40
2017,05,25,10,54,15.40
2017,05,25,10,55,15.40
2017,05,25,10,56,15.50
2017,05,25,10,57,15.60
2017,05,25,10,58,15.60
2017,05,25,10,59,15.70
2017,05,25,11,00,15.70
2017,05,25,11,01,15.70
2017,05,25,11,02,15.70
2017,05,25,11,03,15.80
2017,05,25,11,04,15.80
2017,05,25,11,05,15.70
2017,05,25,11,06,15.70
2017,05,25,11,07,15.70
2017,05,25,11,08,15.80
2017,05,25,11,09,15.90
2017,05,25,11,10,16.00
2017,05,25,11,11,16.10
2017,05,25,11,12,16.10
2017,05,25,11,13,16.10
2017,05,25,11,14,16.10
2017,05,25,11,15,16.10
2017,05,25,11,16,16.00
2017,05,25,11,17,16.00
2017,05,25,11,18,16.00
2017,05,25,11,19,15.90
2017,05,25,11,20,15.90
2017,05,25,11,21,15.80
2017,05,25,11,22,15.80
2017,05,25,11,23,15.80
2017,05,25,11,24,15.80
2017,05,25,11,25,15.80
2017,05,25,11,26,15.80
2017,05,25,11,27,15.80
2017,05,25,11,28,15.80
2017,05,25,11,29,15.80
2017,05,25,11,30,15.80
2017,05,25,11,31,15.80
2017,05,25,11,32,15.90
2017,05,25,11,33,16.00
2017,05,25,11,34,16.10
2017,05,25,11,35,16.20
2017,05,25,11,36,16.20
2017,05,25,11,37,16.20
2017,05,25,11,38,16.20
2017,05,25,11,39,16.10
2017,05,25,11,40,16.10
2017,05,25,11,41,16.10
2017,05,25,11,42,16.00
2017,05,25,11,43,16.00
2017,05,25,11,44,16.00
2017,05,25,11,45,16.00
2017,05,25,11,46,16.10
2017,05,25,11,47,16.10
2017,05,25,11,48,16.20
2017,05,25,11,49,16.20
2017,05,25,11,50,16.20
2017,05,25,11,51,16.30
2017,05,25,11,52,16.30
2017,05,25,11,53,16.40
2017,05,25,11,54,16.40
2017,05,25,11,55,16.50
2017,05,25,11,56,16.50
2017,05,25,11,57,16.50
2017,05,25,11,58,16.60
2017,05,25,11,59,16.60
2017,05,25,12,00,16.70
2017,05,25,12,01,16.70
2017,05,25,12,02,16.70
2017,05,25,12,03,16.60
2017,05,25,12,04,16.50
2017,05,25,12,05,16.50
2017,05,25,12,06,16.40
2017,05,25,12,07,16.40
2017,05,25,12,08,16.30
2017,05,25,12,09,16.30
2017,05,25,12,10,16.20
2017,05,25,12,11,16.10
2017,05,25,12,12,16.20
2017,05,25,12,13,16.20
2017,05,25,12,14,16.40
2017,05,25,12,15,16.40
2017,05,25,12,16,16.40
2017,05,25,12,17,16.40
2017,05,25,12,18,16.40
2017,05,25,12,19,16.40
2017,05,25,12,20,16.40
2017,05,25,12,21,16.40
2017,05,25,12,22,16.40
2017,05,25,12,23,16.40
2017,05,25,12,24,16.40
2017,05,25,12,25,16.40
2017,05,25,12,26,16.40
2017,05,25,12,27,16.40
2017,05,25,12,28,16.50
2017,05,25,12,29,16.60
2017,05,25,12,30,16.70
2017,05,25,12,31,16.80
2017,05,25,12,32,16.90
2017,05,25,12,33,16.90
2017,05,25,12,34,16.90
2017,05,25,12,35,16.90
2017,05,25,12,36,16.90
2017,05,25,12,37,16.90
2017,05,25,12,38,16.90
2017,05,25,12,39,16.90
2017,05,25,12,40,16.90
2017,05,25,12,41,16.90
2017,05,25,12,42,16.90
2017,05,25,12,43,17.00
2017,05,25,12,44,17.10
2017,05,25,12,45,17.10
2017,05,25,12,46,17.20
2017,05,25,12,47,17.30
2017,05,25,12,48,17.40
2017,05,25,12,49,17.40
2017,05,25,12,50,17.40
2017,05,25,12,51,17.40
2017,05,25,12,52,17.30
2017,05,25,12,53,17.30
2017,05,25,12,54,17.20
2017,05,25,12,55,17.20
2017,05,25,12,56,17.20
2017,05,25,12,57,17.20
2017,05,25,12,58,17.30
2017,05,25,12,59,17.40
2017,05,25,13,00,17.50
2017,05,25,13,01,17.60
2017,05,25,13,02,17.70
2017,05,25,13,03,17.70
2017,05,25,13,04,17.70
2017,05,25,13,05,17.70
2017,05,25,13,06,17.60
2017,05,25,13,07,17.60
2017,05,25,13,08,17.50
2017,05,25,13,09,17.50
2017,05,25,13,10,17.50
2017,05,25,13,11,17.60
2017,05,25,13,12,17.60
2017,05,25,13,13,17.60
2017,05,25,13,14,17.60
2017,05,25,13,15,17.70
2017,05,25,13,16,17.60
2017,05,25,13,17,17.60
2017,05,25,13,18,17.50
2017,05,25,13,19,17.50
2017,05,25,13,20,17.40
2017,05,25,13,21,17.30
2017,05,25,13,22,17.30
2017,05,25,13,23,17.30
2017,05,25,13,24,17.40
2017,05,25,13,25,17.40
2017,05,25,13,26,17.50
2017,05,25,13,27,17.50
2017,05,25,13,28,17.40
2017,05,25,13,29,17.40
2017,05,25,13,30,17.40
2017,05,25,13,31,17.30
2017,05,25,13,32,17.20
2017,05,25,13,33,17.20
2017,05,25,13,34,17.30
2017,05,25,13,35,17.50
2017,05,25,13,36,17.60
2017,05,25,13,37,17.60
2017,05,25,13,38,17.70
2017,05,25,13,39,17.80
2017,05,25,13,40,17.90
2017,05,25,13,41,18.00
2017,05,25,13,42,18.20
2017,05,25,13,43,18.20
2017,05,25,13,44,18.20
2017,05,25,13,45,18.20
2017,05,25,13,46,18.10
2017,05,25,13,47,18.10
2017,05,25,13,48,18.00
2017,05,25,13,49,18.00
2017,05,25,13,50,18.00
2017,05,25,13,51,18.00
2017,05,25,13,52,18.00
2017,05,25,13,53,18.00
2017,05,25,13,54,18.00
2017,05,25,13,55,18.00
2017,05,25,13,56,18.00
2017,05,25,13,57,17.90
2017,05,25,13,58,17.80
2017,05,25,13,59,17.80
2017,05,25,14,00,17.80
2017,05,25,14,01,17.80
2017,05,25,14,02,17.80
2017,05,25,14,03,17.80
2017,05,25,14,04,17.80
2017,05,25,14,05,17.70
2017,05,25,14,06,17.70
2017,05,25,14,07,17.60
2017,05,25,14,08,17.50
2017,05,25,14,09,17.40
2017,05,25,14,10,17.40
2017,05,25,14,11,17.40
2017,05,25,14,12,17.50
2017,05,25,14,13,17.60
2017,05,25,14,14,17.70
2017,05,25,14,15,17.80
2017,05,25,14,16,18.00
2017,05,25,14,17,18.10
2017,05,25,14,18,18.30
2017,05,25,14,19,18.30
2017,05,25,14,20,18.30
2017,05,25,14,21,18.30
2017,05,25,14,22,18.30
2017,05,25,14,23,18.20
2017,05,25,14,24,18.20
2017,05,25,14,25,18.20
2017,05,25,14,26,18.20
2017,05,25,14,27,18.20
2017,05,25,14,28,18.20
2017,05,25,14,29,18.20
2017,05,25,14,30,18.20
2017,05,25,14,31,18.30
2017,05,25,14,32,18.50
2017,05,25,14,33,18.70
2017,05,25,14,34,18.90
2017,05,25,14,35,19.10
2017,05,25,14,36,19.20
2017,05,25,14,37,19.40
2017,05,25,14,38,19.50
2017,05,25,14,39,19.60
2017,05,25,14,40,19.70
2017,05,25,14,41,19.80
2017,05,25,14,42,19.80
2017,05,25,14,43,19.90
2017,05,25,14,44,20.00
2017,05,25,14,45,20.10
2017,05,25,14,46,20.20
2017,05,25,14,47,20.30
2017,05,25,14,48,20.40
2017,05,25,14,49,20.50
2017,05,25,14,50,20.50
2017,05,25,14,51,20.50
2017,05,25,14,52,20.50
2017,05,25,14,53,20.50
2017,05,25,14,54,20.50
2017,05,25,14,55,20.60
2017,05,25,14,56,20.60
2017,05,25,14,57,20.60
2017,05,25,14,58,20.50
2017,05,25,14,59,20.50
2017,05,25,15,00,20.40
2017,05,25,15,01,20.40
2017,05,25,15,02,20.40
2017,05,25,15,03,20.40
2017,05,25,15,04,20.50
2017,05,25,15,05,20.60
2017,05,25,15,06,20.60
2017,05,25,15,07,20.60
2017,05,25,15,08,20.60
2017,05,25,15,09,20.60
2017,05,25,15,10,20.60
2017,05,25,15,11,20.60
2017,05,25,15,12,20.60
2017,05,25,15,13,20.60
2017,05,25,15,14,20.60
2017,05,25,15,15,20.60
2017,05,25,15,16,20.60
2017,05,25,15,17,20.60
2017,05,25,15,18,20.60
2017,05,25,15,19,20.50
2017,05,25,15,20,20.40
2017,05,25,15,21,20.40
2017,05,25,15,22,20.40
2017,05,25,15,23,20.50
2017,05,25,15,24,20.60
2017,05,25,15,25,20.60
2017,05,25,15,26,20.60
2017,05,25,15,27,20.70
2017,05,25,15,28,20.80
2017,05,25,15,29,20.80
2017,05,25,15,30,20.80
2017,05,25,15,31,20.80
2017,05,25,15,32,20.70
2017,05,25,15,33,20.60
2017,05,25,15,34,20.60
2017,05,25,15,35,20.50
2017,05,25,15,36,20.40
2017,05,25,15,37,20.50
2017,05,25,15,38,20.50
2017,05,25,15,39,20.40
2017,05,25,15,40,20.40
2017,05,25,15,41,20.40
2017,05,25,15,42,20.40
2017,05,25,15,43,20.40
2017,05,25,15,44,20.40
2017,05,25,15,45,20.40
2017,05,25,15,46,20.40
2017,05,25,15,47,20.40
2017,05,25,15,48,20.40
2017,05,25,15,49,20.40
2017,05,25,15,50,20.40
2017,05,25,15,51,20.40
2017,05,25,15,52,20.40
2017,05,25,15,53,20.40
2017,05,25,15,54,20.50
2017,05,25,15,55,20.50
2017,05,25,15,56,20.60
2017,05,25,15,57,20.60
2017,05,25,15,58,20.60
2017,05,25,15,59,20.50
2017,05,25,16,00,20.50
2017,05,25,16,01,20.40
2017,05,25,16,02,20.40
2017,05,25,16,03,20.30
2017,05,25,16,04,20.30
2017,05,25,16,05,20.20
2017,05,25,16,06,20.20
2017,05,25,16,07,20.20
2017,05,25,16,08,20.20
2017,05,25,16,09,20.20
2017,05,25,17,04,20.00
2017,05,25,17,05,20.00
2017,05,25,17,06,20.10
2017,05,25,17,07,20.10
2017,05,25,17,08,20.10
2017,05,25,17,09,20.10
2017,05,25,17,10,20.10
2017,05,25,17,11,20.10
2017,05,25,17,12,20.10
2017,05,25,17,13,20.10
2017,05,25,17,14,20.10
2017,05,25,17,15,20.10
2017,05,25,17,16,20.00
2017,05,25,17,17,20.10
2017,05,25,17,18,20.10
2017,05,25,17,19,20.10
2017,05,25,17,20,20.20
2017,05,25,17,21,20.20
2017,05,25,17,22,20.20
2017,05,25,17,23,20.10
2017,05,25,17,24,20.10
2017,05,25,17,25,20.00
2017,05,25,17,26,20.00
2017,05,25,17,27,19.90
2017,05,25,17,28,19.90
2017,05,25,17,29,19.90
2017,05,25,17,30,19.90
2017,05,25,17,31,19.90
2017,05,25,17,32,19.90
2017,05,25,17,33,19.80
2017,05,25,17,34,19.80
2017,05,25,17,35,19.70
2017,05,25,17,36,19.70
2017,05,25,17,37,19.60
2017,05,25,17,38,19.60
2017,05,25,17,39,19.60
2017,05,25,17,40,19.70
2017,05,25,17,41,19.70
2017,05,25,17,42,19.70
2017,05,25,17,43,19.70
2017,05,25,17,44,19.60
2017,05,25,17,45,19.60
2017,05,25,17,46,19.60
2017,05,25,17,47,19.50
2017,05,25,17,48,19.40
2017,05,25,17,49,19.30
2017,05,25,17,50,19.30
2017,05,25,17,51,19.30
2017,05,25,17,52,19.20
2017,05,25,17,53,19.20
2017,05,25,17,54,19.20
2017,05,25,17,55,19.20
2017,05,25,17,56,19.20
2017,05,25,17,57,19.20
2017,05,25,17,58,19.20
2017,05,25,17,59,19.20
2017,05,25,18,00,19.20
2017,05,25,18,01,19.20
2017,05,25,18,02,19.20
2017,05,25,18,03,19.20
2017,05,25,18,04,19.20
2017,05,25,18,05,19.20
2017,05,25,18,06,19.30
2017,05,25,18,07,19.30
2017,05,25,18,08,19.20
2017,05,25,18,09,19.20
2017,05,25,18,10,19.10
2017,05,25,18,11,19.10
2017,05,25,18,12,19.00
2017,05,25,18,13,18.90
2017,05,25,18,14,18.80
2017,05,25,18,15,18.80
2017,05,25,18,16,18.80
2017,05,25,18,17,18.80
2017,05,25,18,18,18.80
2017,05,25,18,19,18.80
2017,05,25,18,20,18.80
2017,05,25,18,21,18.80
2017,05,25,18,22,18.80
2017,05,25,18,23,18.80
2017,05,25,18,24,18.80
2017,05,25,18,25,18.80
2017,05,25,18,26,18.70
2017,05,25,18,27,18.70
2017,05,25,18,28,18.70
2017,05,25,18,29,18.70
2017,05,25,18,30,18.80
2017,05,25,18,31,18.80
2017,05,25,18,32,18.70
2017,05,25,18,33,18.70
2017,05,25,18,34,18.70
2017,05,25,18,35,18.70
2017,05,25,18,36,18.70
2017,05,25,18,37,18.80
2017,05,25,18,38,18.80
2017,05,25,18,39,18.90
2017,05,25,18,40,19.00
2017,05,25,18,41,19.00
2017,05,25,18,42,19.10
2017,05,25,18,43,19.20
2017,05,25,18,44,19.30
2017,05,25,18,45,19.30
2017,05,25,18,46,19.40
2017,05,25,18,47,19.40
2017,05,25,18,48,19.40
2017,05,25,18,49,19.50
2017,05,25,18,50,19.50
2017,05,25,18,51,19.60
2017,05,25,18,52,19.70
2017,05,25,18,53,19.70
2017,05,25,18,54,19.70
2017,05,25,18,55,19.70
2017,05,25,18,56,19.70
2017,05,25,18,57,19.70
2017,05,25,18,58,19.70
2017,05,25,18,59,19.80
2017,05,25,19,00,19.80
2017,05,25,19,01,19.80
2017,05,25,19,02,19.80
2017,05,25,19,03,19.90
2017,05,25,19,04,19.90
2017,05,25,19,05,19.90
2017,05,25,19,06,19.90
2017,05,25,19,07,19.90
2017,05,25,19,08,19.80
2017,05,25,19,09,19.80
2017,05,25,19,10,19.70
2017,05,25,19,11,19.60
2017,05,25,19,12,19.60
2017,05,25,19,13,19.60
2017,05,25,19,14,19.60
2017,05,25,19,15,19.60
2017,05,25,19,16,19.60
2017,05,25,19,17,19.60
2017,05,25,19,18,19.60
2017,05,25,19,19,19.60
2017,05,25,19,20,19.60
2017,05,25,19,21,19.70
2017,05,25,19,22,19.70
2017,05,25,19,23,19.70
2017,05,25,19,24,19.70
2017,05,25,19,25,19.70
2017,05,25,19,26,19.70
2017,05,25,19,27,19.70
2017,05,25,19,28,19.70